Weather History for KDSV - October, 2013

Change the Weather History Date:

Monday, October 7, 2013

  Actual Average Record
Temperature  
Mean Temperature 63 °F -  
Max Temperature 73 °F 65 °F 84 °F (1963)
Min Temperature 52 °F 41 °F 26 °F (1954)
Degree Days  
Heating Degree Days 2    
Growing Degree Days 13 (Base 50)    
Moisture  
Dew Point 53 °F    
Average Humidity 72    
Maximum Humidity 90    
Minimum Humidity 44    
Precipitation  
Precipitation 0.53 in - - ()
Sea Level Pressure  
Sea Level Pressure 29.80 in    
Wind  
Wind Speed 8 mph (SSE)    
Max Wind Speed 16 mph    
Max Gust Speed 26 mph    
Visibility 9 miles    
Events Rain    
Averages and records for this station are not official NWS values.
T = Trace of Precipitation, MM = Missing Value Source: NWS Daily Summary

Daily Weather History Graph

Daily Weather History Graph

Search for Another Location

Airport or City:

Trip Planner

Search our weather history database for the weather conditions in past years. The results will help you decide how hot, cold, wet, or windy it might be!

Date:

Astronomy

Oct. 07, 2013 Rise Set
Actual Time 7:14 AM EDT 6:41 PM EDT
Civil Twilight 6:46 AM EDT 7:09 PM EDT
Nautical Twilight 6:14 AM EDT 7:42 PM EDT
Astronomical Twilight 5:41 AM EDT 8:14 PM EDT
Moon 10:06 AM EDT (10/7) 8:20 PM EDT (10/7)
Length of Visible Light 12h 22m
Length of Day
11h 26m
Waxing Crescent, 8% of the Moon is Illuminated
Oct 7
Waxing Crescent
Oct 11
First Quarter
Oct 18
Full
Oct 26
Last Quarter
Nov 3
New

Hourly Weather History & Observations

Time (EDT) Temp. Dew Point Humidity Pressure Visibility Wind Dir Wind Speed Gust Speed Precip Events Conditions
12:54 AM 73.9 °F 63.0 °F 68% 29.78 in 10.0 mi SSE 11.5 mph - N/A   Clear
1:54 AM 73.9 °F 63.0 °F 68% 29.75 in 10.0 mi SSE 10.4 mph 18.4 mph N/A   Clear
2:54 AM 73.0 °F 62.1 °F 68% 29.73 in 10.0 mi SE 10.4 mph - N/A   Partly Cloudy
3:54 AM 73.9 °F 62.1 °F 66% 29.70 in 10.0 mi SSE 15.0 mph - N/A   Partly Cloudy
4:54 AM 73.9 °F 60.1 °F 62% 29.70 in 10.0 mi South 11.5 mph 24.2 mph N/A   Clear
5:54 AM 73.9 °F 60.1 °F 62% 29.68 in 10.0 mi SSE 16.1 mph 23.0 mph N/A   Clear
6:54 AM 73.0 °F 60.1 °F 64% 29.68 in 10.0 mi SSE 10.4 mph - N/A   Partly Cloudy
7:54 AM 73.0 °F 61.0 °F 66% 29.66 in 10.0 mi SSE 5.8 mph - N/A   Overcast
8:35 AM 64.4 °F 57.2 °F 77% 29.70 in 4.0 mi NNW 15.0 mph 26.5 mph 0.07 in Rain Heavy Rain
8:40 AM 62.6 °F 57.2 °F 82% 29.69 in 1.8 mi NNW 13.8 mph 26.5 mph 0.15 in Rain Heavy Rain
8:54 AM 61.0 °F 57.0 °F 87% 29.73 in 2.0 mi NNE 9.2 mph - 0.25 in Rain Heavy Rain
9:29 AM 60.8 °F 57.2 °F 88% 29.72 in 5.0 mi Calm Calm - 0.12 in Rain Light Rain
9:54 AM 61.0 °F 57.9 °F 90% 29.75 in 10.0 mi East 4.6 mph - 0.14 in Rain Light Rain
10:26 AM 60.8 °F 55.4 °F 82% 29.75 in 10.0 mi South 6.9 mph - 0.02 in Rain Light Rain
10:41 AM 60.8 °F 53.6 °F 77% 29.75 in 6.0 mi Variable 4.6 mph - 0.04 in Rain Rain
10:54 AM 60.1 °F 55.0 °F 83% 29.78 in 10.0 mi SSW 5.8 mph - 0.05 in Rain Light Rain
11:54 AM 59.0 °F 55.0 °F 87% 29.76 in 10.0 mi Calm Calm - 0.07 in Rain Light Rain
12:18 PM 59.0 °F 53.6 °F 82% 29.75 in 10.0 mi Calm Calm - 0.00 in Rain Light Rain
12:41 PM 59.0 °F 55.4 °F 88% 29.73 in 10.0 mi Calm Calm - 0.00 in Rain Light Rain
12:49 PM 59.0 °F 55.4 °F 88% 29.74 in 10.0 mi Calm Calm - 0.00 in   Overcast
12:54 PM 59.0 °F 54.0 °F 83% 29.76 in 10.0 mi Calm Calm - 0.00 in   Overcast
1:24 PM 59.0 °F 51.8 °F 77% 29.75 in 10.0 mi NW 8.1 mph - 0.00 in   Overcast
1:54 PM 60.1 °F 48.0 °F 64% 29.77 in 10.0 mi Variable 6.9 mph 23.0 mph 0.00 in   Mostly Cloudy
2:54 PM 61.0 °F 43.0 °F 52% 29.81 in 10.0 mi Variable 6.9 mph - 0.01 in   Partly Cloudy
3:54 PM 61.0 °F 39.0 °F 44% 29.84 in 10.0 mi West 11.5 mph 21.9 mph N/A   Overcast
4:54 PM 60.1 °F 39.9 °F 47% 29.86 in 10.0 mi Variable 5.8 mph 17.3 mph N/A   Overcast
5:54 PM 59.0 °F 39.9 °F 49% 29.90 in 10.0 mi Calm Calm - N/A   Overcast
6:54 PM 57.9 °F 39.9 °F 51% 29.93 in 10.0 mi Variable 4.6 mph - N/A   Overcast
7:54 PM 57.0 °F 42.1 °F 57% 29.97 in 10.0 mi Variable 6.9 mph - N/A   Overcast
8:54 PM 55.0 °F 44.1 °F 67% 30.01 in 10.0 mi SSW 6.9 mph - 0.00 in   Overcast
9:54 PM 53.1 °F 46.9 °F 80% 30.06 in 10.0 mi Variable 4.6 mph - 0.01 in Rain Light Rain
10:54 PM 53.1 °F 46.0 °F 77% 30.08 in 10.0 mi Variable 4.6 mph - 0.00 in   Mostly Cloudy
11:54 PM 52.0 °F 46.0 °F 80% 30.11 in 10.0 mi Calm Calm - N/A   Clear